Other Public Products
Issued by NWS Grand Forks, ND

Home | Current Version | Previous Version | Graphics & Text | Print | Product List | Glossary Off
Versions: 1 2 3 4 5 6 7 8 9 10 11 12 13 14 15 16 17 18 19 20 21 22 23 24 25 26 27 28 29 30 31 32 33 34 35 36 37 38 39 40 41 42 43 44 45 46 47 48 49 50

000
FPUS83 KFGF 282231
OPUFGF
PRAIRIE TO PINES WEATHER ROUNDUP
NATIONAL WEATHER SERVICE EASTERN NORTH DAKOTA/GRAND FORKS ND
500 PM CDT THU APR 28 2016

 **SATELLITE DATA USED TO AUGMENT SKY COVER AT AUTOMATED STATIONS**
 *****  WEATHER ACROSS EASTERN NORTH DAKOTA  *****

CITY           SKY/WX    TMP DP  RH WIND       PRES   REMARKS
GRAND FORKS    PTSUNNY   58  26  29 NE16      30.11S
GRAND FORKS AF MOSUNNY   56  23  27 NE14      30.12S
GRAND CITY NWS NOT AVBL
BUXTON           N/A     43  26  50 NE10        N/A
DEVILS LAKE    PTSUNNY   53  18  25 E15       30.14S
FARGO          CLOUDY    60  21  22 NE13G23   30.05S
WAHPETON ARPT  CLOUDY    52  27  37 E3        30.07R
$$

 *****  WEATHER ACROSS CENTRAL AND WESTERN NORTH DAKOTA  *****

CITY           SKY/WX    TMP DP  RH WIND       PRES   REMARKS
JAMESTOWN      CLOUDY    54  22  28 E17       30.08R
BISMARCK       CLOUDY    55  21  26 E14       30.09S
MINOT          MOSUNNY   59  12  15 E17       30.13S
MINOT AFB      MOSUNNY   56  16  20 E12G20    30.12S
GARRISON         N/A     55  16  21 NE13G21   30.11S
WILLISTON      CLOUDY    57  21  24 SE12      30.13F
DICKINSON      CLOUDY    50  26  39 E9        30.07F
HETTINGER      CLOUDY    46  32  58 E7        30.10S
$$

 *****  OTHER OBSERVATIONS NORTHEAST NORTH DAKOTA  *****

CITY           SKY/WX    TMP DP  RH WIND       PRES   REMARKS
WALHALLA       FAIR      57  23  26 NE12      30.15S
LANGDON        FAIR      57  21  24 E14       30.14S
CAVALIER       FAIR      57  27  30 NE10G17   30.14S
GRAFTON        FAIR      57  27  30 E12       30.15S
CANDO          FAIR      57  19  23 E13G21    30.16S
FORT TOTTEN      N/A     55  18  23 NE7       29.95S
ROLLA          FAIR      55  14  19 NE16G35   30.16S
RUGBY          FAIR      54  18  24 E13       30.13F
 ***** THE ABOVE OBSERVATIONS ARE NON NWS ARE NOT QUALITY
        CONTROLLED AND MAY MIS-REPORT RAIN FOR SNOW...
$$

 *****  OTHER OBSERVATIONS SOUTHEAST NORTH DAKOTA *****

CITY           SKY/WX    TMP DP  RH WIND       PRES   REMARKS
COOPERSTOWN    NOT AVBL
VALLEY CITY    CLOUDY    54  23  30 NE14G21   30.10R
OAKES            N/A    N/A N/A N/A MISG        N/A
GWINNER        FAIR      55  28  35 E10       30.06S
SHEYENNE NWR     N/A     57  21  24 NE12      29.95
BUFFALO          N/A     54  17  23 NE15        N/A
WYNDMERE         N/A     55  30  38 NE7         N/A
 ***** THE ABOVE OBSERVATIONS ARE NON NWS ARE NOT QUALITY
       CONTROLLED AND MAY MIS-REPORT RAIN FOR SNOW...
$$

  *****  WEATHER ACROSS NORTHERN MINNESOTA  *****

CITY           SKY/WX    TMP DP  RH WIND       PRES   REMARKS
FLAG ISLAND    SUNNY     52  18  25 NE12      30.14S
WARROAD        SUNNY     52  25  35 E9        30.16S
ROSEAU         SUNNY     54  27  35 E12       30.15R
HALLOCK        SUNNY     61  16  17 E10       30.13S
THF RVR FALLS  MOSUNNY   55  25  30 NE10G18   30.12S
HALSTAD          N/A     60  23  24 NE16        N/A
FOSSTON        MOSUNNY   57  27  30 NE10G17   30.09S
BAUDETTE       SUNNY     57  23  26 CALM      30.11F
WASKISH        MOSUNNY   54  28  37 N12G20    30.11S
CROOKSTON      MOSUNNY   55  25  30 NE12        N/A
$$
  *****  WEATHER ACROSS CENTRAL AND WEST MINNESOTA  *****

CITY           SKY/WX    TMP DP  RH WIND       PRES   REMARKS
BEMIDJI        MOSUNNY   55  26  32 NE14      30.07R
PARK RAPIDS    CLOUDY    56  22  26 NE8       30.05S
WADENA         CLOUDY    55  25  30 NE8       30.03S
DETROIT LAKES  MOSUNNY   54  23  30 NE9       30.07R
MOORHEAD       CLOUDY    57  19  23 CALM      30.07R
FERGUS FALLS   CLOUDY    54  27  35 CALM      30.04R
ELBOW LAKE     CLOUDY    49  30  47 SE3       30.06S
MORRIS MN      CLOUDY    45  39  81 E9        30.07R
STAPLES        MOSUNNY   55  19  24 E6        30.04R
WHEATON        PTSUNNY   46  39  76 S7        30.09R
$$
  *****  WEATHER ELSEWHERE ACROSS MINNESOTA  *****

CITY           SKY/WX    TMP DP  RH WIND       PRES   REMARKS
DULUTH         MOSUNNY   45  26  47 E14       30.09S
INTRNTL FALLS  SUNNY     54  26  34 N10       30.11S
ELY            SUNNY     52  25  35 NE5       30.09S
CLOQUET        CLOUDY    43  19  39 E9G18     30.10R
BRAINERD       CLOUDY    54  20  26 E8        30.04S
HIBBING        MOSUNNY   54  25  32 VRB5      30.06S
ALEXANDRIA     CLOUDY    45  37  73 SE7       30.06S
SAINT CLOUD    LGT RAIN  42  37  82 E6        30.06R
MINNEAPOLIS    LGT RAIN  41  35  79 NE10      30.06R
$$

  *****  WEATHER ACROSS SOUTH DAKOTA  *****

CITY           SKY/WX    TMP DP  RH WIND       PRES   REMARKS
SIOUX FALLS    CLOUDY    42  36  79 N8        30.02S
BROOKINGS      CLOUDY    38  33  82 NE10      30.03R
WATERTOWN      FLURRIES  37  34  89 NE12      30.04S
HURON          CLOUDY    43  37  79 MISG      30.05R
SISSETON         N/A     47  33  58 E8        30.06S
ABERDEEN       CLOUDY    52  35  52 NE12G20   30.06R
MITCHELL       CLOUDY    43  39  86 N6        30.05S
PIERRE         CLOUDY    48  36  63 NE9       30.04F
MOBRIDGE       CLOUDY    53  35  50 E8        30.03S
RAPID CITY     CLOUDY    41  34  76 NE12      30.05S
$$

  *****  SOME WEATHER IN NEARBY STATES *****

CITY           SKY/WX    TMP DP  RH WIND       PRES   REMARKS
GLASGOW MT     MOSUNNY   55  27  34 SE15      30.11F
GREAT FALLS MT LGT RAIN  42  35  76 E17       30.07F
CHEYENNE WY    LGT SNOW  35  32  88 SE8       29.97F FOG
SCOTTSBLUFF NE CLOUDY    43  29  57 SE8       30.02R
OMAHA NE       CLOUDY    49  42  77 NW12      30.01R
DES MOINES IA  CLOUDY    54  46  74 W17G25    29.92R
DAVENPORT IA   CLOUDY    54  49  83 N3        29.91R
CHICAGO IL     CLOUDY    45  39  79 N10       29.94R
EAU CLAIRE WI  LGT RAIN  43  36  76 E12G18    30.03R
LA CROSSE WI   CLOUDY    43  38  82 E7        30.00R
$$

  *****  SOME NATIONAL WEATHER *****

CITY           SKY/WX    TMP DP  RH WIND       PRES   REMARKS
LA GUARDIA NY  CLOUDY    53  30  41 S9        30.03R
RALEIGH NC     LGT RAIN  70  66  88 E6        29.82F
ATLANTA GA     MOSUNNY   83  56  39 W10G20    29.92F
NEW ORLEANS LA CLOUDY    79  72  79 SE9       29.90F
OKLAHOMA CITY  MOSUNNY   75  50  41 SE15G22   29.86F
ALBUQUERQUE NM MOSUNNY   72  11   9 S17G32    29.69F
SALT LAKE CITY CLOUDY    57  35  43 SE12      29.74S
LOS ANGELES CA MOSUNNY   63  50  62 W15       29.87R
BOISE ID       PTSUNNY   68  33  27 NW21G33   29.79S
SEATTLE WA     PTSUNNY   61  43  51 SE7       30.10S
$$

*** WEATHER ACROSS MANITOBA...SASKATCHEWAN AND ONTARIO ***
                ***ONTARIO***

CITY           SKY/WX    TMP DP  RH WIND       PRES   REMARKS
GERALDTON      MOSUNNY   46  28  49 NE10      30.16R
THUNDER BAY    PTSUNNY   46  27  46 SE13      30.14S
SIOUX LOOKOUT  PTSUNNY   48  28  46 NE6       30.16S
TORONTO        CLOUDY    46  23  39 E10       30.05R
BIG TROUT LK   LGT RAIN  36  30  80 NE6       30.31
PICKLE LAKE    PTSUNNY   45  27  49 NE7       30.20S
DRYDEN         SUNNY     50  27  40 NE15      30.15S
KENORA         PTSUNNY   52  21  30 NE12      30.16S
$$
                *** MANITOBA***

CITY           SKY/WX    TMP DP  RH WIND       PRES   REMARKS
BRANDON        PTSUNNY   55  10  16 E23       30.20F
DAUPHIN        SUNNY     57  16  19 E13G18    30.25S
ISLAND LAKE    SUNNY     48  12  23 N7        30.32F
PILOT MOUND      N/A     55  10  16 NE16G22     N/A
THE PAS        MOSUNNY   55  19  24 SE9       30.31F
THOMPSON       PTSUNNY   54  19  26 VRB2      30.33F
WINNIPEG       PTSUNNY   55  12  18 NE18G26   30.19F
LYNN LAKE      PTSUNNY   59  25  27 S10       30.22F
CHURCHILL      PTSUNNY   28  23  80 NE7       30.47F WCI  21
GILLAM         PTSUNNY   45  16  31 NE8       30.39F
$$
                ***SASKATCHEWAN***

CITY           SKY/WX    TMP DP  RH WIND       PRES   REMARKS
ESTEVAN        CLOUDY    57  12  17 E16G23    30.15F
KINDERSLEY     PTSUNNY   61  23  23 E7        30.14F
LLOYDMINSTER   PTSUNNY   61  19  20 S13G24    30.15F
PRINCE ALBERT  MOSUNNY   61  23  23 E14       30.22F
REGINA         PTSUNNY   61  19  20 E10G21    30.17F
YORKTON        SUNNY     59  19  21 E9G17     30.20F   C1F1C2F2C3F3C4F4C5F5C6F6C7F7C8F8C9F9CaFaCbFbCcFcCdFdCe!


USA.gov is the U.S. government's official web portal to all federal, state and local government web resources and services.